TIME,DELAY(SENSOR),PRES,OXYGEN,RAWTEMP,T(OPTODE),TCPHASE,FLUOR,BETA(BETA700),BETA(BETA412),BETA(BETA440),CDOM,C(CSC),ED(ED412.40),ED(ED444.00),ED(ED489.70),ED(ED554.30),LU(LU411.80),LU(LU443.40),LU(LU489.60),LU(LU554.10),COMP,TILTX,TILTY,CHECK
1354851438,5807,872.7899780273438000,44.4957885742187500,663.5947265625000000,4.5095558166503910,54.3689994812011700,53,100,90,79,81,15201,2147756114,2147421842,2148009408,2147874925,2147642157,2147056960,2148259337,2147196434,473,4,13,56637
1354855034,5808,953.0100097656250000,48.3754692077636700,672.7603149414062000,4.2069721221923830,53.9345397949218750,53,100,85,78,81,15199,2147759707,2147421568,2148010880,2147870802,2147644397,2147052736,2148261138,2147195510,591,4,13,20674
1354858634,5809,974.3400268554688000,48.7545394897460940,673.5537719726562000,4.1807289123535160,53.8875389099121100,52,99,86,80,81,15198,2147757641,2147420653,2148010459,2147874523,2147644315,2147057920,2148263451,2147197723,477,4,13,26142
1354862234,5808,973.2899780273438000,48.7343902587890600,674.4564208984375000,4.1508731842041020,53.9025802612304700,52,99,87,79,80,15197,2147756315,2147422208,2148009819,2147874843,2147646080,2147055140,2148260242,2147195264,865,4,13,53183
1354865834,5809,992.3300170898438000,48.7061882019043000,675.0612182617188000,4.1308608055114750,53.9150009155273440,52,98,87,79,81,15191,2147758729,2147420635,2148010578,2147874752,2147647670,2147059300,2148262592,2147194825,2340,4,13,39091
1354869434,5809,990.8499755859375000,48.5941390991210940,674.8988037109375000,4.1362338066101070,53.9284706115722660,52,105,91,81,81,15197,2147759963,2147421010,2148012854,2147871725,2147646646,2147062281,2148260781,2147192603,2756,4,13,47090
1354873034,5812,989.8099975585938000,48.2960815429687500,674.5974731445312000,4.1462059020996090,53.9634017944335940,53,99,88,79,82,15193,2147760009,2147418029,2148007478,2147872877,2147645604,2147058971,2148257929,2147193344,320,4,13,41860
1354876634,5810,994.0300292968750000,48.4267997741699200,674.9111938476562000,4.1358242034912110,53.9521598815918000,52,98,90,79,81,15195,2147757376,2147420013,2148009033,2147875602,2147646208,2147060644,2148262701,2147194477,224,5,13,14318
1354880234,5808,992.8599853515625000,48.0702896118164060,674.2197875976562000,4.1586990356445310,53.9895591735839840,53,98,86,79,80,15185,2147755492,2147424694,2148008109,2147874048,2147643721,2147054765,2148257920,2147196827,458,4,13,13780
1354883834,5811,999.0800170898438000,47.9341087341308600,674.7368164062500000,4.1415982246398930,54.0195617675781250,53,97,87,79,80,15186,2147757714,2147419190,2148008640,2147877513,2147645494,2147059638,2148256566,2147193225,3450,4,13,47342
1354887434,5806,988.4299926757812000,48.0470085144043000,674.9379882812500000,4.1349349021911620,54.0005416870117200,53,100,87,80,80,15186,2147756251,2147418688,2148006784,2147877604,2147644004,2147058797,2148266669,2147195300,3578,4,13,52803
1354891034,5807,994.1500244140625000,48.5607604980468750,676.4547729492188000,4.0847339630126950,53.9514999389648440,52,101,84,78,81,15182,2147758710,2147422061,2148011172,2147877458,2147645586,2147057526,2148263076,2147195282,3283,4,13,11553
1354894634,5810,994.1699829101562000,48.5795593261718750,676.2576904296875000,4.0912590026855470,53.9441108703613300,53,100,89,77,81,15179,2147753289,2147418048,2148008841,2147872548,2147644992,2147055433,2148258203,2147195081,3485,4,13,43347
1354898234,5809,992.5999755859375000,48.5386810302734400,676.6105957031250000,4.0795760154724120,53.9545097351074200,53,100,91,78,80,15183,2147757549,2147421659,2148009133,2147871908,2147646454,2147058587,2148265206,2147196626,3218,4,13,56077
1354901834,5808,991.9699707031250000,48.6323814392089840,677.4299926757812000,4.0524430274963380,53.9525299072265600,52,97,89,79,82,15180,2147756214,2147419190,2148008539,2147872182,2147646326,2147057152,2148253531,2147199981,297,4,13,54354
1354905434,5809,987.7100219726562000,48.6071891784668000,676.5214843750000000,4.0825271606445310,53.9432106018066400,51,100,85,78,81,15178,2147762843,2147421202,2148008310,2147874112,2147647744,2147061220,2148264301,2147194898,498,4,13,50446
1354909034,5808,991.1799926757812000,48.7054290771484400,676.5999145507812000,4.0799307823181150,53.9281501770019500,53,99,87,79,81,15176,2147756662,2147422774,2148011117,2147875273,2147649252,2147061997,2148257380,2147194084,3420,4,13,7205
1354912634,5809,998.4799804687500000,48.7827301025390600,676.5933227539062000,4.0801491737365720,53.9214897155761700,53,100,84,79,81,15174,2147757577,2147420516,2148010651,2147877376,2147648484,2147060032,2148262345,2147197001,305,4,13,38364
1354916234,5808,1013.2600097656250000,48.2252616882324200,674.5305175781250000,4.1484217643737790,53.9743118286132800,53,99,86,80,82,15172,2147757056,2147423652,2148009252,2147875044,2147645348,2147064045,2148264036,2147198628,156,4,13,42853
1354919834,5809,1014.9600219726562000,47.9233093261718750,673.4749755859375000,4.1833357810974120,54.0054016113281250,52,100,87,78,81,15170,2147755968,2147422144,2148009901,2147876022,2147646418,2147059556,2148263899,2147199158,3231,4,13,40573
1354923434,5809,1007.5800170898438000,47.6709403991699200,674.5432128906250000,4.1480011940002440,54.0530014038085940,53,98,85,78,82,15170,2147757065,2147425462,2148008054,2147871232,2147644315,2147059556,2148257526,2147196754,24,4,13,49503
1354927034,5809,995.0399780273438000,47.7150497436523440,675.0081176757812000,4.1326179504394530,54.0520896911621100,53,137,87,78,82,15116,2147755830,2147426121,2148008722,2147870866,2147643840,2147062372,2148257051,2147197577,2943,4,13,46116
1354930634,5810,1007.4799804687500000,48.0724296569824200,675.1229858398438000,4.1288170814514160,54.0025596618652340,53,103,88,79,82,15116,2147758445,2147424475,2148007634,2147874413,2147645202,2147056667,2148258989,2147197440,207,4,13,54051
1354934234,5808,1000.1900024414062000,47.6934204101562500,675.8137817382812000,4.1059532165527340,54.0641593933105500,52,99,88,80,80,15116,2147755739,2147423094,2148007963,2147873380,2147643245,2147057380,2148262235,2147195209,356,4,13,20357
1354937834,5805,1003.1500244140625000,47.8661994934082000,675.8618774414062000,4.1043620109558105,54.0382995605468750,53,98,84,78,81,15113,2147759680,2147420918,2148008786,2147873700,2147647762,2147060982,2148260470,2147194532,3524,4,13,671
1354941434,5809,1004.6099853515625000,48.3757095336914060,675.9880981445312000,4.1001830101013180,53.9682617187500000,53,98,84,79,82,15112,2147756726,2147421915,2148009298,2147873179,2147646381,2147062043,2148260690,2147192146,55,4,13,12280
1354945034,5809,999.4799804687500000,48.1166191101074200,676.3424072265625000,4.0884552001953125,54.0080604553222660,52,98,89,80,81,15115,2147759085,2147421906,2148009901,2147873590,2147645705,2147060544,2148262016,2147195008,3505,4,13,36877
1354948634,5810,999.5399780273438000,47.3603897094726560,676.3375854492188000,4.0886120796203610,54.1128501892089840,53,99,88,78,81,15115,2147761243,2147421613,2148009115,2147876416,2147646006,2147060800,2148258304,2147194669,88,4,13,44643
1354952234,5810,1002.1500244140625000,48.3861312866210940,676.6298828125000000,4.0789361000061035,53.9800682067871100,52,98,90,79,81,15113,2147755373,2147421769,2148009782,2147878354,2147645339,2147058340,2148260132,2147193389,3595,4,13,9278
1354955834,5808,1004.1400146484375000,48.6221694946289060,676.5933837890625000,4.0801429748535160,53.9463310241699200,53,107,86,79,81,15112,2147758948,2147421531,2148010130,2147876288,2147646134,2147057316,2148263369,2147194368,98,4,13,20580
1354959434,5809,995.2700195312500000,48.2928009033203100,676.4014282226562000,4.0865039825439450,53.9887695312500000,53,100,90,79,81,15111,2147757385,2147419282,2148009545,2147875318,2147647332,2147058185,2148261705,2147194523,14,5,13,62926
1354963034,5812,998.2700195312500000,48.0105705261230500,676.2744140625000000,4.0907058715820310,54.0267181396484400,52,100,88,79,81,15109,2147755803,2147423570,2148009316,2147875821,2147645211,2147056722,2148264877,2147200256,769,4,13,28869
1354966634,5808,1000.0100097656250000,48.0411605834960940,675.9456176757812000,4.1015892028808590,54.0167617797851560,52,100,86,80,81,15109,2147755382,2147423570,2148008649,2147871936,2147646134,2147057426,2148263506,2147199442,3578,4,13,35713
1354970234,5809,1004.1699829101562000,47.8663902282714840,676.9564819335938000,4.0681209564208980,54.0554008483886700,53,100,90,79,80,15111,2147755739,2147419876,2148007789,2147872100,2147645595,2147058331,2148264146,2147196452,159,4,13,15593
1354973834,5805,1013.0599975585938000,48.8546218872070300,677.3641967773438000,4.0546212196350100,53.9215507507324200,53,98,88,78,81,15112,2147755684,2147420269,2148005147,2147873307,2147649609,2147051830,2148266230,2147197696,2771,4,13,46266
1354977434,5810,1011.2600097656250000,48.4482383728027340,676.1204833984375000,4.0958018302917480,53.9597396850585940,53,99,87,80,82,15118,2147755949,2147420169,2148011858,2147875346,2147646134,2147053933,2148265673,2147192155,2793,4,13,9998
1354981034,5810,1000.1900024414062000,48.5857009887695300,677.6027221679688000,4.0467209815979000,53.9608497619628900,52,98,88,78,81,15117,2147756589,2147419154,2148012489,2147873664,2147648246,2147061019,2148263725,2147196068,3512,4,13,21326
1354984634,5812,999.6900024414062000,48.4491500854492200,677.4119873046875000,4.0530400276184080,53.9761695861816400,52,98,87,79,81,15118,2147757504,2147420681,2148008365,2147874797,2147647387,2147057472,2148260013,2147196160,88,4,13,16020
1354988234,5810,999.8900146484375000,48.5773811340332000,678.4865722656250000,4.0174407958984375,53.9711189270019500,52,99,87,78,82,15114,2147757412,2147421430,2148008109,2147875510,2147648320,2147054592,2148266084,2147191012,236,4,13,59551
1354991834,5811,1007.2999877929688000,48.7860298156738300,676.9708862304688000,4.0676460266113280,53.9285812377929700,52,107,88,79,81,15115,2147757348,2147422582,2148009819,2147876672,2147648256,2147056978,2148260644,2147196937,3316,4,13,37384
1354995434,5807,988.7899780273438000,48.5709495544433600,677.5546264648438000,4.0483150482177730,53.9611587524414060,53,98,91,79,82,15119,2147755227,2147419602,2148010806,2147876818,2147645979,2147054774,2148262674,2147197577,927,4,13,33282
1354995956,5808,992.7800292968750000,48.5797004699707000,678.2916259765625000,4.0239028930664060,53.9707984924316400,52,100,87,81,81,15180,2147754761,2147420388,2148009892,2147876434,2147648018,2147061046,2148260452,2147194697,2360,4,13,27936
